Flag for Canada Weather past 2 weeks in Kelowna, British Columbia, Canada

Now
30 °F

Sunny.


Feels Like: 30 °F
Forecast: 34 / 69 °F
Wind: No wind

Location: Kelowna Airport

Current Time: Apr 19, 2015 at 7:57:29 AM

Latest Report: Apr 19, 2015 at 7:00 AM


Visibility: 9 mi

Pressure: 30.30 "Hg

Humidity: 86%

Dew point: 27 °F

Location of KelownaLocation

Historic Weather in Kelowna — Graph

°F

Kelowna temperature yesterday

Maximum temperature yesterday: 64 °F (at 5:00 PM)
Minimum temperature yesterday: 32 °F (at 6:00 AM)
Average temperature yesterday: 49 °F

Past Weeks' High & Low Weather Summary

 TemperatureHumidityPressure
High72 °F (Apr 17, 4:00 PM)93% (Apr 4, 6:00 AM)30.45 "Hg (Apr 4, 6:00 AM)
Low25 °F (Apr 5, 5:00 AM)12% (Apr 17, 6:00 PM)29.55 "Hg (Apr 11, 3:00 AM)
Average47 °F51%30.01 "Hg
* Reported Apr 4 6:00 AM — Apr 19 6:00 AM, Kelowna, Weather by CustomWeather, © 2015

Note: Actual official high and low records may vary slightly from our data, if they occured in-between our weather recording intervals... More about our weather records

Advertising

Kelowna weather history for previous 24 hours

 ConditionsComfort  
Time TempWeatherWind HumidityBarometerVisibility
6:00 AM
Sun, Apr 19
32 °FClear.N/A80%30.30 "Hg9 mi
5:00 AM32 °FClear.2 mph80%30.29 "Hg9 mi
4:00 AM34 °FClear.No wind81%30.28 "Hg9 mi
3:00 AM34 °FClear.6 mph81%30.27 "Hg9 mi
2:00 AM36 °FPassing clouds.No wind75%30.27 "Hg9 mi
1:00 AM39 °FClear.2 mph65%30.27 "Hg9 mi
12:00 AM39 °FClear.3 mph70%30.26 "Hg9 mi
11:00 PM
Sat, Apr 18
43 °FPassing clouds.2 mph61%30.26 "Hg9 mi
10:00 PM45 °FPassing clouds.No wind61%30.25 "Hg9 mi
9:00 PM50 °FPassing clouds.3 mph40%30.24 "Hg9 mi
8:00 PM54 °FPartly sunny.2 mph44%30.24 "Hg9 mi
7:00 PM61 °FOvercast.7 mph23%30.25 "Hg9 mi
6:00 PM63 °FSunny.7 mph22%30.26 "Hg9 mi
5:00 PM64 °FPassing clouds.6 mph21%30.27 "Hg9 mi
4:00 PM59 °FPassing clouds.9 mph27%30.29 "Hg9 mi
3:00 PM63 °FSunny.6 mph20%30.32 "Hg9 mi
2:00 PM61 °FSunny.7 mph22%30.34 "Hg9 mi
1:00 PM61 °FSunny.7 mph22%30.37 "Hg9 mi
12:00 PM59 °FSunny.10 mph21%30.38 "Hg9 mi
11:00 AM55 °FSunny.6 mph26%30.40 "Hg9 mi
10:00 AM54 °FSunny.3 mph28%30.41 "Hg9 mi
9:00 AM50 °FSunny.3 mph37%30.42 "Hg9 mi
8:00 AM45 °FSunny.3 mph49%30.41 "Hg9 mi
7:00 AM32 °FSunny.N/A80%30.41 "Hg9 mi
Weather by CustomWeather, © 2015

See weather overviewHow to use our weather pages